Location: Saratoga Springs
(43.0831°N, 73.7850°W)
Time: 03:47:43
(UTC-04:00)

Vanguard 1 Rocket - Pass Details

Date: 19 April 2024
Orbit: 651 x 4220 km, 34.3° (Epoch: 17 May)

Event Time Altitude Azimuth Distance (km) Brightness Sun altitude
Rises 00:12:05 0° 270° (W) 4,254 11.0 -34.7°
Reaches altitude 10° 00:14:38 10° 262° (W) 3,607 10.5 -34.8°
Enters shadow 00:18:23 27° 242° (WSW) 2,957 9.8 -35.0°
Maximum altitude 00:23:30 40° 196° (SSW) 2,957 - -35.1°
Drops below altitude 10° 00:39:28 10° 136° (SE) 6,374 - -35.5°
Sets 00:45:55 0° 131° (SE) 7,866 - -35.5°
